Weather History for KIFA - April, 2014

Change the Weather History Date:

Sunday, April 27, 2014

  Actual Average Record
Temperature  
Mean Temperature 48 °F -  
Max Temperature 57 °F 68 °F 90 °F (1981)
Min Temperature 40 °F 43 °F 30 °F (1950)
Degree Days  
Heating Degree Days 16    
Moisture  
Dew Point 44 °F    
Average Humidity 82    
Maximum Humidity 92    
Minimum Humidity 65    
Precipitation  
Precipitation 0.46 in - - ()
Sea Level Pressure  
Sea Level Pressure 29.63 in    
Wind  
Wind Speed 24 mph (East)    
Max Wind Speed 32 mph    
Max Gust Speed 43 mph    
Visibility 10 miles    
Events Rain    
Averages and records for this station are not official NWS values.
T = Trace of Precipitation, MM = Missing Value Source: NWS Daily Summary

Daily Weather History Graph

Daily Weather History Graph

Search for Another Location

Airport or City:

Trip Planner

Search our weather history database for the weather conditions in past years. The results will help you decide how hot, cold, wet, or windy it might be!

Date:

Astronomy

Apr. 27, 2014 Rise Set
Actual Time 6:13 AM CDT 8:08 PM CDT
Civil Twilight 5:43 AM CDT 8:38 PM CDT
Nautical Twilight 5:06 AM CDT 9:16 PM CDT
Astronomical Twilight 4:26 AM CDT 9:56 PM CDT
Moon 5:16 AM CDT (4/27) 6:41 PM CDT (4/27)
Length of Visible Light 14h 55m
Length of Day
13h 54m
Waning Crescent, 3% of the Moon is Illuminated
Apr 27
Waning Crescent
Apr 29
New
May 6
First Quarter
May 14
Full
May 21
Last Quarter

Hourly Weather History & Observations

Time (CDT) Temp. Windchill Dew Point Humidity Pressure Visibility Wind Dir Wind Speed Gust Speed Precip Events Conditions
12:15 AM 50.2 °F - 38.7 °F 65% 29.81 in 10.0 mi East 20.7 mph 33.4 mph N/A   Overcast
12:35 AM 49.6 °F - 38.3 °F 65% 29.80 in 10.0 mi East 19.6 mph 31.1 mph N/A   Overcast
12:55 AM 48.7 °F - 38.1 °F 67% 29.80 in 10.0 mi East 20.7 mph 31.1 mph N/A   Overcast
1:15 AM 48.2 °F - 37.6 °F 67% 29.80 in 10.0 mi East 24.2 mph 33.4 mph N/A   Overcast
1:35 AM 46.8 °F - 37.0 °F 69% 29.78 in 10.0 mi East 26.5 mph 34.5 mph N/A   Overcast
1:55 AM 44.8 °F 36.4 °F 35.4 °F 70% 29.78 in 10.0 mi East 21.9 mph 33.4 mph N/A Rain Light Rain
2:15 AM 43.0 °F 33.3 °F 35.4 °F 75% 29.78 in 10.0 mi East 25.3 mph 35.7 mph 0.04 in Rain Light Rain
2:35 AM 41.9 °F 32.3 °F 34.5 °F 75% 29.79 in 7.0 mi East 23.0 mph 29.9 mph 0.01 in Rain Light Rain
2:55 AM 41.2 °F 31.1 °F 34.0 °F 76% 29.79 in 10.0 mi East 24.2 mph 36.8 mph 0.02 in Rain Light Rain
3:15 AM 41.0 °F 32.2 °F 34.3 °F 77% 29.79 in 10.0 mi East 18.4 mph 29.9 mph N/A   Overcast
3:35 AM 40.5 °F 30.4 °F 34.0 °F 78% 29.79 in 10.0 mi East 23.0 mph - N/A   Overcast
3:55 AM 41.0 °F 30.7 °F 33.1 °F 73% 29.77 in 10.0 mi East 25.3 mph 36.8 mph N/A   Overcast
4:15 AM 40.8 °F 30.9 °F 33.4 °F 75% 29.76 in 10.0 mi East 23.0 mph 32.2 mph N/A Rain Light Rain
4:35 AM 41.0 °F 30.9 °F 34.2 °F 77% 29.75 in 10.0 mi East 24.2 mph 34.5 mph N/A   Overcast
4:55 AM 41.0 °F 30.0 °F 34.5 °F 78% 29.74 in 10.0 mi East 28.8 mph 38.0 mph N/A   Mostly Cloudy
5:15 AM 41.4 °F 30.5 °F 34.7 °F 77% 29.72 in 10.0 mi East 28.8 mph 40.3 mph N/A   Mostly Cloudy
5:35 AM 41.0 °F 30.2 °F 34.9 °F 79% 29.72 in 10.0 mi East 27.6 mph 40.3 mph N/A   Scattered Clouds
5:55 AM 41.0 °F 30.2 °F 35.2 °F 80% 29.71 in 10.0 mi East 27.6 mph 38.0 mph N/A   Clear
6:15 AM 41.0 °F 30.0 °F 35.6 °F 81% 29.71 in 10.0 mi East 28.8 mph 42.6 mph N/A   Clear
6:35 AM 41.2 °F 30.3 °F 36.5 °F 83% 29.70 in 10.0 mi East 28.8 mph 36.8 mph N/A   Mostly Cloudy
6:55 AM 41.4 °F 30.7 °F 37.0 °F 85% 29.69 in 10.0 mi East 27.6 mph 34.5 mph N/A   Overcast
7:15 AM 41.9 °F 30.7 °F 37.4 °F 84% 29.68 in 10.0 mi East 32.2 mph 39.1 mph N/A   Overcast
7:35 AM 42.4 °F 31.8 °F 37.6 °F 83% 29.67 in 10.0 mi ESE 29.9 mph 40.3 mph N/A   Overcast
7:55 AM 42.8 °F 32.1 °F 37.9 °F 83% 29.66 in 10.0 mi ESE 31.1 mph 36.8 mph N/A   Overcast
8:15 AM 43.9 °F 33.9 °F 38.8 °F 82% 29.65 in 10.0 mi East 28.8 mph 41.4 mph N/A   Overcast
8:35 AM 44.8 °F 35.2 °F 39.6 °F 82% 29.65 in 10.0 mi ESE 28.8 mph 39.1 mph N/A   Mostly Cloudy
8:55 AM 43.9 °F 34.3 °F 39.7 °F 85% 29.65 in 10.0 mi ESE 26.5 mph 34.5 mph N/A   Mostly Cloudy
9:15 AM 43.9 °F 34.3 °F 40.3 °F 87% 29.63 in 10.0 mi ESE 26.5 mph 34.5 mph N/A Rain Light Rain
9:35 AM 43.9 °F 34.7 °F 40.8 °F 89% 29.62 in 10.0 mi East 24.2 mph 29.9 mph N/A Rain Light Rain
9:55 AM 44.1 °F 34.6 °F 41.2 °F 90% 29.64 in 7.0 mi ESE 26.5 mph 32.2 mph 0.02 in Rain Light Rain
10:15 AM 44.6 °F 35.3 °F 41.9 °F 90% 29.63 in 10.0 mi ESE 26.5 mph 34.5 mph N/A Rain Light Rain
10:35 AM 45.7 °F 36.7 °F 42.4 °F 88% 29.62 in 10.0 mi ESE 26.5 mph 33.4 mph N/A   Overcast
10:55 AM 47.3 °F - 43.7 °F 87% 29.64 in 10.0 mi East 21.9 mph 28.8 mph N/A   Overcast
11:15 AM 48.2 °F - 44.1 °F 86% 29.64 in 10.0 mi East 24.2 mph 31.1 mph N/A   Overcast
11:35 AM 48.7 °F - 44.4 °F 85% 29.65 in 10.0 mi East 21.9 mph 28.8 mph N/A   Overcast
11:55 AM 51.8 °F - 46.4 °F 82% 29.64 in 10.0 mi East 24.2 mph 32.2 mph N/A   Overcast
12:15 PM 52.2 °F - 46.6 °F 81% 29.62 in 10.0 mi East 25.3 mph 33.4 mph N/A   Overcast
12:35 PM 54.3 °F - 47.7 °F 78% 29.62 in 10.0 mi East 25.3 mph 31.1 mph N/A   Overcast
12:55 PM 55.9 °F - 48.4 °F 76% 29.59 in 10.0 mi East 24.2 mph 34.5 mph N/A   Mostly Cloudy
1:15 PM 57.4 °F - 48.6 °F 72% 29.58 in 10.0 mi East 23.0 mph 35.7 mph N/A   Scattered Clouds
1:35 PM 57.6 °F - 48.9 °F 73% 29.57 in 10.0 mi East 27.6 mph 35.7 mph N/A   Overcast
1:55 PM 57.0 °F - 48.0 °F 72% 29.55 in 10.0 mi East 26.5 mph 38.0 mph N/A   Overcast
2:15 PM 54.9 °F - 48.4 °F 79% 29.55 in 10.0 mi East 25.3 mph 32.2 mph N/A Rain Light Rain
2:35 PM 55.6 °F - 48.4 °F 77% 29.53 in 10.0 mi East 20.7 mph 27.6 mph 0.01 in   Overcast
3:15 PM 57.2 °F - 47.5 °F 70% 29.50 in 10.0 mi East 24.2 mph 33.4 mph N/A   Overcast
3:55 PM 55.2 °F - 49.1 °F 80% 29.63 in 7.0 mi SW 18.4 mph 40.3 mph 0.03 in Rain Light Rain
4:15 PM 54.3 °F - 50.0 °F 85% 29.63 in 2.5 mi Calm Calm - 0.17 in Rain Heavy Rain
4:35 PM 53.6 °F - 50.9 °F 91% 29.62 in 5.0 mi East 13.8 mph - 0.25 in Rain Rain
4:55 PM 53.2 °F - 51.1 °F 92% 29.57 in 5.0 mi ENE 11.5 mph - 0.30 in Rain Rain
5:15 PM 53.6 °F - 50.9 °F 91% 29.44 in 10.0 mi ENE 21.9 mph 28.8 mph 0.03 in Rain Light Rain
5:35 PM 54.0 °F - 50.4 °F 88% 29.46 in 10.0 mi ENE 19.6 mph 31.1 mph 0.03 in   Overcast
5:55 PM 53.8 °F - 49.6 °F 86% 29.45 in 10.0 mi ENE 26.5 mph 41.4 mph 0.03 in Rain Light Rain
6:15 PM 54.0 °F - 50.0 °F 86% 29.46 in 10.0 mi ENE 25.3 mph 35.7 mph N/A   Mostly Cloudy
6:35 PM 54.0 °F - 50.4 °F 88% 29.51 in 10.0 mi East 19.6 mph 23.0 mph N/A   Clear
6:55 PM 54.5 °F - 51.3 °F 89% 29.51 in 10.0 mi East 16.1 mph 21.9 mph N/A   Scattered Clouds
7:15 PM 55.4 °F - 52.7 °F 91% 29.52 in 10.0 mi ESE 21.9 mph - N/A   Mostly Cloudy
7:35 PM 55.8 °F - 52.2 °F 88% 29.52 in 10.0 mi ESE 23.0 mph 31.1 mph N/A   Overcast
7:55 PM 55.0 °F - 52.0 °F 89% 29.53 in 10.0 mi ESE 25.3 mph 29.9 mph N/A   Overcast
8:15 PM 55.0 °F - 52.5 °F 91% 29.54 in 10.0 mi ESE 24.2 mph 27.6 mph N/A   Overcast
8:35 PM 55.4 °F - 52.7 °F 91% 29.54 in 10.0 mi ESE 24.2 mph 31.1 mph N/A   Overcast
8:55 PM 55.0 °F - 52.3 °F 91% 29.55 in 10.0 mi ESE 25.3 mph 33.4 mph N/A   Overcast
9:15 PM 54.3 °F - 51.6 °F 91% 29.56 in 10.0 mi East 20.7 mph 28.8 mph N/A   Overcast
9:35 PM 53.8 °F - 51.1 °F 91% 29.56 in 10.0 mi ESE 24.2 mph 29.9 mph N/A   Overcast
9:55 PM 53.6 °F - 50.9 °F 91% 29.55 in 10.0 mi East 25.3 mph 33.4 mph N/A   Overcast
10:15 PM 53.2 °F - 50.9 °F 92% 29.55 in 10.0 mi ESE 23.0 mph 32.2 mph N/A Rain Light Rain
10:35 PM 53.1 °F - 50.5 °F 91% 29.54 in 10.0 mi ESE 27.6 mph 33.4 mph 0.02 in Rain Rain
10:55 PM 52.7 °F - 50.0 °F 91% 29.54 in 10.0 mi East 27.6 mph 32.2 mph 0.02 in   Overcast
11:15 PM 52.3 °F - 49.5 °F 90% 29.55 in 10.0 mi East 24.2 mph 35.7 mph N/A   Overcast
11:35 PM 51.8 °F - 49.1 °F 90% 29.53 in 10.0 mi East 28.8 mph 32.2 mph 0.01 in Rain Light Rain
11:55 PM - - - N/A% 29.57 in - North - - N/A   Unknown